Weather History for Port Heiden, AK

Change the Weather History Date:

Tuesday, April 1, 2014

  Actual Average Record
Temperature  
Mean Temperature 42 °F -  
Max Temperature 46 °F 32 °F 46 °F (2014)
Min Temperature 35 °F 21 °F -2 °F (2004)
Degree Days  
Heating Degree Days 24    
Moisture  
Dew Point 27 °F    
Average Humidity 59    
Maximum Humidity 70    
Minimum Humidity 34    
Precipitation  
Precipitation 0.00 in - - ()
Sea Level Pressure  
Sea Level Pressure 29.66 in    
Wind  
Wind Speed 20 mph (SE)    
Max Wind Speed 32 mph    
Max Gust Speed 37 mph    
Visibility 10 miles    
Events      
Averages and records for this station are not official NWS values.
T = Trace of Precipitation, MM = Missing Value Source: NWS Daily Summary

Daily Weather History Graph

Daily Weather History Graph

Search for Another Location

Airport:

Trip Planner

Search our weather history database for the weather conditions in past years. The results will help you decide how hot, cold, wet, or windy it might be!

Date:

Astronomy

Apr. 01, 2014 Rise Set
Actual Time 8:03 AM AKDT 9:14 PM AKDT
Civil Twilight 7:24 AM AKDT 9:53 PM AKDT
Nautical Twilight 6:36 AM AKDT 10:42 PM AKDT
Astronomical Twilight 5:42 AM AKDT 11:36 PM AKDT
Moon 8:49 AM AKDT (4/1) No Moon Set
Length of Visible Light 14h 29m
Length of Day
13h 11m
Waxing Crescent, 5% of the Moon is Illuminated
Apr 1
Waxing Crescent
Apr 7
First Quarter
Apr 14
Full
Apr 21
Last Quarter
Apr 28
New

Hourly Weather History & Observations

Time (AKDT) Temp. Windchill Dew Point Humidity Pressure Visibility Wind Dir Wind Speed Gust Speed Precip Events Conditions
12:16 AM 37.4 °F 30.3 °F 26.6 °F 65% 29.74 in 10.0 mi ESE 10.4 mph 16.1 mph N/A   Overcast
12:36 AM 37.4 °F 26.6 °F 26.6 °F 65% 29.73 in 10.0 mi ESE 21.9 mph 26.5 mph N/A   Overcast
12:56 AM 37.4 °F 28.2 °F 26.6 °F 65% 29.72 in 10.0 mi ESE 16.1 mph 26.5 mph N/A   Overcast
1:16 AM 37.4 °F 27.5 °F 26.6 °F 65% 29.72 in 10.0 mi ESE 18.4 mph 25.3 mph N/A   Overcast
1:36 AM 37.4 °F 26.1 °F 26.6 °F 65% 29.71 in 10.0 mi ESE 24.2 mph 29.9 mph N/A   Overcast
1:56 AM 39.2 °F 28.5 °F 26.6 °F 61% 29.70 in 10.0 mi ESE 24.2 mph 29.9 mph N/A   Overcast
2:16 AM 37.4 °F 26.9 °F 26.6 °F 65% 29.70 in 10.0 mi ESE 20.7 mph 28.8 mph N/A   Overcast
2:36 AM 39.2 °F 28.7 °F 26.6 °F 61% 29.69 in 10.0 mi ESE 23.0 mph 31.1 mph N/A   Overcast
2:56 AM 39.2 °F 28.3 °F 26.6 °F 61% 29.68 in 10.0 mi ESE 25.3 mph 33.4 mph N/A   Overcast
3:16 AM 39.2 °F 28.0 °F 26.6 °F 61% 29.66 in 10.0 mi ESE 26.5 mph 33.4 mph N/A   Overcast
3:36 AM 39.2 °F 27.6 °F 26.6 °F 61% 29.65 in 10.0 mi ESE 28.8 mph 34.5 mph N/A   Overcast
3:56 AM 39.2 °F 27.4 °F 26.6 °F 61% 29.65 in 10.0 mi ESE 29.9 mph 34.5 mph N/A   Mostly Cloudy
4:16 AM 39.2 °F 27.0 °F 26.6 °F 61% 29.64 in 10.0 mi ESE 32.2 mph - N/A   Mostly Cloudy
4:36 AM 39.2 °F 27.2 °F 26.6 °F 61% 29.64 in 10.0 mi ESE 31.1 mph 34.5 mph N/A   Mostly Cloudy
4:56 AM 39.2 °F 27.6 °F 26.6 °F 61% 29.64 in 10.0 mi ESE 28.8 mph - N/A   Mostly Cloudy
5:16 AM 39.2 °F 28.7 °F 26.6 °F 61% 29.65 in 10.0 mi ESE 23.0 mph 31.1 mph N/A   Clear
5:36 AM 39.2 °F 28.7 °F 26.6 °F 61% 29.65 in 10.0 mi ESE 23.0 mph 27.6 mph N/A   Mostly Cloudy
5:56 AM 37.4 °F 26.4 °F 26.6 °F 65% 29.65 in 10.0 mi ESE 23.0 mph - N/A   Mostly Cloudy
6:16 AM 39.2 °F 28.7 °F 26.6 °F 61% 29.65 in 10.0 mi ESE 23.0 mph 27.6 mph N/A   Mostly Cloudy
6:36 AM 39.2 °F 29.8 °F 26.6 °F 61% 29.65 in 10.0 mi ESE 18.4 mph 25.3 mph N/A   Scattered Clouds
6:56 AM 39.2 °F 29.8 °F 26.6 °F 61% 29.65 in 10.0 mi ESE 18.4 mph 26.5 mph N/A   Mostly Cloudy
7:16 AM 39.2 °F 29.8 °F 26.6 °F 61% 29.65 in 10.0 mi ESE 18.4 mph 25.3 mph N/A   Overcast
7:36 AM 39.2 °F 29.6 °F 26.6 °F 61% 29.64 in 10.0 mi ESE 19.6 mph 24.2 mph N/A   Overcast
7:56 AM 39.2 °F 29.6 °F 26.6 °F 61% 29.64 in 10.0 mi ESE 19.6 mph 27.6 mph N/A   Overcast
8:16 AM 39.2 °F 29.6 °F 26.6 °F 61% 29.63 in 10.0 mi ESE 19.6 mph 24.2 mph N/A   Overcast
8:36 AM 39.2 °F 30.2 °F 26.6 °F 61% 29.64 in 10.0 mi ESE 17.3 mph 24.2 mph N/A   Overcast
8:56 AM 39.2 °F 28.7 °F 26.6 °F 61% 29.63 in 10.0 mi ESE 23.0 mph 27.6 mph N/A   Overcast
9:16 AM 39.2 °F 30.2 °F 26.6 °F 61% 29.64 in 10.0 mi ESE 17.3 mph 28.8 mph N/A   Overcast
9:36 AM 39.2 °F 35.9 °F 26.6 °F 61% 29.65 in 10.0 mi SSE 4.6 mph - N/A   Overcast
9:56 AM 39.2 °F 34.2 °F 26.6 °F 61% 29.65 in 10.0 mi SE 6.9 mph - N/A   Overcast
10:16 AM 39.2 °F 30.2 °F 26.6 °F 61% 29.64 in 10.0 mi SE 17.3 mph - N/A   Overcast
10:36 AM 39.2 °F 30.5 °F 26.6 °F 61% 29.65 in 10.0 mi ESE 16.1 mph 20.7 mph N/A   Overcast
10:56 AM 41.0 °F 34.7 °F 28.4 °F 61% 29.66 in 10.0 mi ESE 10.4 mph - N/A   Overcast
11:16 AM 42.8 °F 37.0 °F 26.6 °F 53% 29.66 in 10.0 mi East 10.4 mph - N/A   Mostly Cloudy
11:36 AM 42.8 °F 39.3 °F 28.4 °F 57% 29.66 in 10.0 mi ESE 5.8 mph - N/A   Overcast
11:56 AM 42.8 °F 38.0 °F 26.6 °F 53% 29.66 in 10.0 mi SE 8.1 mph - N/A   Overcast
12:16 PM 42.8 °F 37.5 °F 28.4 °F 57% 29.66 in 10.0 mi ESE 9.2 mph - N/A   Overcast
12:36 PM 42.8 °F 35.8 °F 28.4 °F 57% 29.65 in 10.0 mi SE 13.8 mph 19.6 mph N/A   Overcast
12:56 PM 44.6 °F 36.9 °F 30.2 °F 57% 29.65 in 10.0 mi SE 18.4 mph 21.9 mph N/A   Overcast
1:16 PM 44.6 °F 36.9 °F 30.2 °F 57% 29.66 in 10.0 mi SE 18.4 mph 24.2 mph N/A   Overcast
1:36 PM 44.6 °F 36.4 °F 30.2 °F 57% 29.66 in 10.0 mi SE 20.7 mph 27.6 mph N/A   Overcast
1:56 PM 44.6 °F 37.4 °F 30.2 °F 57% 29.66 in 10.0 mi SSE 16.1 mph 25.3 mph N/A   Overcast
2:16 PM 46.4 °F 38.5 °F 30.2 °F 53% 29.66 in 10.0 mi SSE 21.9 mph 27.6 mph N/A   Mostly Cloudy
2:36 PM 46.4 °F 38.1 °F 30.2 °F 53% 29.65 in 10.0 mi SE 24.2 mph 27.6 mph N/A   Mostly Cloudy
2:56 PM 46.4 °F 37.9 °F 28.4 °F 50% 29.65 in 10.0 mi SSE 25.3 mph 31.1 mph N/A   Scattered Clouds
3:16 PM 46.4 °F 37.9 °F 28.4 °F 50% 29.66 in 10.0 mi SSE 25.3 mph 33.4 mph N/A   Scattered Clouds
3:36 PM 46.4 °F 38.5 °F 26.6 °F 46% 29.66 in 10.0 mi SE 21.9 mph 32.2 mph N/A   Partly Cloudy
3:56 PM 46.4 °F 36.9 °F 26.6 °F 46% 29.65 in 10.0 mi SSE 32.2 mph 36.8 mph N/A   Clear
4:16 PM 46.4 °F 37.4 °F 26.6 °F 46% 29.65 in 10.0 mi SSE 28.8 mph 33.4 mph N/A   Clear
4:36 PM 46.4 °F 37.7 °F 28.4 °F 50% 29.64 in 10.0 mi SSE 26.5 mph 33.4 mph N/A   Clear
4:56 PM 46.4 °F 37.4 °F 28.4 °F 50% 29.64 in 10.0 mi SE 28.8 mph - N/A   Clear
5:16 PM 46.4 °F 38.1 °F 28.4 °F 50% 29.64 in 10.0 mi SE 24.2 mph 34.5 mph N/A   Mostly Cloudy
5:36 PM 44.6 °F 35.7 °F 26.6 °F 49% 29.65 in 10.0 mi SSE 24.2 mph 34.5 mph N/A   Overcast
5:56 PM 42.8 °F 34.0 °F 26.6 °F 53% 29.65 in 10.0 mi SE 20.7 mph 27.6 mph N/A   Mostly Cloudy
6:16 PM 41.0 °F 32.2 °F 26.6 °F 57% 29.66 in 10.0 mi SE 18.4 mph 24.2 mph N/A   Mostly Cloudy
6:36 PM 41.0 °F 32.8 °F 26.6 °F 57% 29.65 in 10.0 mi SE 16.1 mph 21.9 mph N/A   Overcast
6:56 PM 39.2 °F 28.5 °F 26.6 °F 61% 29.63 in 10.0 mi SE 24.2 mph 27.6 mph N/A   Overcast
7:16 PM 41.0 °F 31.1 °F 26.6 °F 57% 29.63 in 10.0 mi SE 23.0 mph 29.9 mph N/A   Overcast
7:36 PM 41.0 °F 30.7 °F 28.4 °F 61% 29.64 in 10.0 mi SE 25.3 mph 32.2 mph N/A   Overcast
7:56 PM 39.2 °F 28.5 °F 26.6 °F 61% 29.64 in 10.0 mi SE 24.2 mph 29.9 mph N/A   Overcast
8:16 PM 39.2 °F 28.7 °F 26.6 °F 61% 29.65 in 10.0 mi SE 23.0 mph 31.1 mph N/A   Overcast
8:36 PM 39.2 °F 30.5 °F 26.6 °F 61% 29.65 in 10.0 mi ESE 16.1 mph 24.2 mph N/A   Overcast
8:56 PM 37.4 °F 28.5 °F 26.6 °F 65% 29.66 in 10.0 mi ESE 15.0 mph 24.2 mph N/A   Overcast
9:16 PM 37.4 °F 29.3 °F 26.6 °F 65% 29.66 in 10.0 mi ESE 12.7 mph - N/A   Overcast
9:36 PM 37.4 °F 27.2 °F 26.6 °F 65% 29.65 in 10.0 mi SE 19.6 mph 23.0 mph N/A   Overcast
9:56 PM 39.2 °F 29.8 °F 26.6 °F 61% 29.65 in 10.0 mi SE 18.4 mph 27.6 mph N/A   Overcast
10:16 PM 37.4 °F 28.2 °F 26.6 °F 65% 29.65 in 10.0 mi SE 16.1 mph - N/A   Overcast
10:36 PM 37.4 °F 28.5 °F 26.6 °F 65% 29.64 in 10.0 mi ESE 15.0 mph 18.4 mph N/A   Overcast
10:56 PM 37.4 °F 28.2 °F 28.4 °F 70% 29.65 in 10.0 mi ESE 16.1 mph - N/A   Overcast
11:16 PM 37.4 °F 28.9 °F 26.6 °F 65% 29.65 in 10.0 mi ESE 13.8 mph - N/A   Mostly Cloudy
11:36 PM 37.4 °F 28.5 °F 26.6 °F 65% 29.65 in 10.0 mi ESE 15.0 mph - N/A   Partly Cloudy
11:56 PM 35.6 °F 26.2 °F 26.6 °F 70% 29.65 in 10.0 mi ESE 15.0 mph 19.6 mph N/A   Clear